Location: Newark
(40.2333°N, 1.4000°W)
Time: 01:41:56
(UTC+00:00)

N. Korean satellite - Visible Passes

Search period start: 20 October 2019 00:00
Search period end: 30 October 2019 00:00
Orbit: 455 x 508 km, 97.2° (Epoch: 19 October)

Date Brightness Start Highest point End Pass type
(mag) Time Alt. Az. Time Alt. Az. Time Alt. Az.
20 Oct 10.5 04:53:10 10° E 04:53:51 10° E 04:54:33 10° ESE visible
21 Oct 9.9 18:08:06 10° SW 18:10:21 16° W 18:12:37 10° NW visible
22 Oct 8.5 05:33:31 10° NNE 05:36:53 35° E 05:40:17 10° SSE visible
22 Oct 8.5 17:41:45 10° SSW 17:44:54 35° W 17:48:07 10° NNW visible
23 Oct 9.9 05:08:57 10° NE 05:11:28 17° E 05:14:00 10° SE visible
25 Oct 7.2 05:50:45 10° NNE 05:54:23 63° E 05:58:03 10° S visible
25 Oct 9.6 17:59:47 10° SW 18:02:25 21° W 18:05:06 10° NW visible
26 Oct 9.0 05:25:48 10° NE 05:29:02 29° E 05:32:16 10° SSE visible
26 Oct 7.9 17:33:42 10° S 17:37:00 45° W 17:40:22 10° NNW visible
27 Oct 10.2 05:01:30 10° ENE 05:03:34 14° E 05:05:39 10° SE visible
28 Oct 10.2 18:18:24 10° WSW 18:19:57 13° W 18:21:32 10° WNW visible
29 Oct 7.8 05:42:54 10° NNE 05:46:30 49° E 05:50:07 10° S visible
29 Oct 9.1 17:51:32 10° SSW 17:54:28 26° W 17:57:27 10° NW visible
